Regional Weather Roundup
Issued by NWS

Home | Current Version | Previous Version | Text Only | Print | Product List | Glossary Off
Versions: 1 2 3 4 5 6 7 8 9 10 11 12 13 14 15 16 17 18 19 20 21 22 23 24 25 26 27 28 29 30 31 32 33 34 35 36 37 38 39 40 41 42 43 44 45 46 47 48 49 50

599
ASUS43 KOAX 312202
RWRNE

WEATHER ROUNDUP FOR NEBRASKA
NATIONAL WEATHER SERVICE OMAHA NE
500 PM CDT TUE MAY 31 2016

NOTES: SATELLITE DATA IS BEING USED TO AUGMENT CLOUD COVER ABOVE
       12000 FEET.
       "FAIR" INDICATES FEW OR NO CLOUDS BELOW 12,000 FEET WITH NO
       SIGNIFICANT WEATHER AND/OR OBSTRUCTIONS TO VISIBILITY.

  * THESE STATIONS DO NOT REPORT WEATHER SUCH AS RAIN...SNOW OR FOG.

NEZ001>004-019>022-054>056-312300-
NEBRASKA PANHANDLE

CITY           SKY/WX    TMP DP  RH WIND       PRES   REMARKS
SCOTTSBLUFF    PTSUNNY   73  38  27 NW13      30.03F
ALLIANCE       CLOUDY    68  33  27 NW17G25   30.00F
CHADRON        MOSUNNY   71  33  24 NW26G38   30.01S
SIDNEY         SUNNY     64  42  44 SW6       30.07F
$$

NEZ057>060-069>072-079>082-312300-
SOUTHWEST NEBRASKA

CITY           SKY/WX    TMP DP  RH WIND       PRES   REMARKS
NORTH PLATTE   SUNNY     68  46  45 NW12      30.01F
IMPERIAL       SUNNY     69  45  41 NW6       30.02F
LEXINGTON      SUNNY     71  49  45 NW5       29.98F
MCCOOK         CLOUDY    72  48  42 N9        30.00F
$$

NEZ005>010-023>029-035>040-094-312300-
NORTH CENTRAL NEBRASKA

CITY           SKY/WX    TMP DP  RH WIND       PRES   REMARKS
VALENTINE      SUNNY     73  33  23 W25G37    29.92F
AINSWORTH      SUNNY     73  36  26 W24G31    29.93F
BROKEN BOW     MOSUNNY   70  46  42 W14       29.97F
ORD            PTSUNNY   72  40  31 W10       29.94F
$$

NEZ041-046>049-061>064-073>077-083>087-312300-
SOUTH CENTRAL NEBRASKA

CITY           SKY/WX    TMP DP  RH WIND       PRES   REMARKS
GRAND ISLAND   PTSUNNY   73  43  33 NW7       29.96F
HASTINGS       SUNNY     73  43  33 N10       29.96F
KEARNEY *      MOSUNNY   73  45  35 N12       29.98S
YORK           CLOUDY    73  48  40 N9        29.95F
$$

NEZ011>018-030>034-042>045-312300-
NORTHEAST NEBRASKA

CITY           SKY/WX    TMP DP  RH WIND       PRES   REMARKS
NORFOLK        CLOUDY    74  43  32 W9        29.91F
ALBION         SUNNY     74  43  32 NW7       29.93F
BLAIR          MOSUNNY   75  53  46 N6        29.92S
FREMONT        SUNNY     75  48  37 N5        29.92S
TEKAMAH        SUNNY     78  47  33 N7        29.90F
$$

NEZ050>053-065>068-078-088>093-312300-
SOUTHEAST NEBRASKA

CITY           SKY/WX    TMP DP  RH WIND       PRES   REMARKS
LINCOLN        SUNNY     77  52  41 N8        29.93F
OMAHA EPPLEY   MOSUNNY   77  56  48 N7        29.90F
BEATRICE       PTSUNNY   74  56  53 N9G16     29.93S
FALLS CITY     MOSUNNY   77  60  55 N9G17     29.89S
PLATTSMOUTH    PTSUNNY   76  60  57 N6        29.91F
$$

NEZ044-045-051>053-067-312300-
OMAHA AREA

CITY           SKY/WX    TMP DP  RH WIND       PRES   REMARKS
OMAHA EPPLEY   MOSUNNY   77  56  48 N7        29.90F
BLAIR          MOSUNNY   75  53  46 N6        29.92S
FREMONT        SUNNY     75  48  37 N5        29.92S
OFFUTT AFB     PTSUNNY   76  59  56 VRB7      29.90F
PLATTSMOUTH    PTSUNNY   76  60  57 N6        29.91F
WAHOO          FAIR      77  45  32 NW10      29.92S
$$




USA.gov is the U.S. government's official web portal to all federal, state and local government web resources and services.